Home   Weather   Küssnacht   Past weeks

Flag for Switzerland Past Weather in Küssnacht, Schwyz, Switzerland — Yesterday and Last 2 Weeks

Now
33 °F

Passing clouds.


Feels Like: 33 °F
Forecast: 28 / 39 °F
Wind: 2 mph from North

Location: Altdorf

Current Time: Apr 30, 2017 at 9:23:25 am

Latest Report: Apr 30, 2017 at 8:00 am


Visibility: 19 mi

Pressure: 29.99 "Hg

Humidity: 91%

Dew Point: 31 °F

Location of KüssnachtLocation

Past Weather in Küssnacht — Graph

°F

Küssnacht Temperature Yesterday

Maximum temperature yesterday: 54 °F (at 5:00 pm)
Minimum temperature yesterday: 31 °F (at 8:00 am)
Average temperature yesterday: 42 °F

High & Low Weather Summary for the Past Weeks

 TemperatureHumidityPressure
High63 °F (Apr 24, 7:00 pm)97% (Apr 15, 10:00 pm)30.57 "Hg (Apr 15, 10:00 pm)
Low27 °F (Apr 21, 7:00 am)29% (Apr 21, 3:00 pm)29.71 "Hg (Apr 26, 12:00 am)
Average44 °F75%30.13 "Hg
* Reported Apr 15 8:00 am — Apr 30 8:00 am, Küssnacht, Weather by CustomWeather, © 2017

Note: Actual official high and low records may vary slightly from our data, if they occured in-between our weather recording intervals... More about our weather records

Advertising

Küssnacht Weather History for the Previous 24 Hours

Scroll right to see more
 ConditionsComfort  
Time TempWeatherWind HumidityBarometerVisibility
8:00 am
Sun, Apr 30
33 °FPassing clouds.2 mph91%29.99 "Hg19 mi
7:00 am35 °FChilly.2 mph86%29.99 "HgN/A
6:00 am33 °FChilly.2 mph88%30.01 "HgN/A
5:00 am31 °FClear.2 mph95%30.02 "Hg12 mi
4:00 am36 °FChilly.1 mph88%30.01 "HgN/A
3:00 am36 °FChilly.3 mph89%30.02 "HgN/A
2:00 am35 °FClear.2 mph92%30.03 "Hg12 mi
1:00 am36 °FChilly.2 mph92%30.03 "HgN/A
12:00 am37 °FChilly.2 mph89%30.03 "HgN/A
11:00 pm
Sat, Apr 29
39 °FClear.2 mph84%30.03 "Hg12 mi
10:00 pm42 °FQuite cool.2 mph80%30.03 "HgN/A
9:00 pm42 °FQuite cool.3 mph78%30.02 "HgN/A
8:00 pm46 °FSunny.2 mph69%30.01 "Hg19 mi
7:00 pm49 °FCool.2 mph57%30.00 "HgN/A
6:00 pm53 °FCool.3 mph56%30.00 "HgN/A
5:00 pm54 °FSunny.5 mph49%29.99 "Hg19 mi
4:00 pm53 °FCool.7 mph53%30.01 "HgN/A
3:00 pm54 °FCool.10 mph53%30.01 "HgN/A
2:00 pm51 °FSunny.13 mph50%30.03 "Hg19 mi
1:00 pm51 °FCool.13 mph56%30.04 "HgN/A
12:00 pm49 °FCool.6 mph60%30.06 "HgN/A
11:00 am46 °FPassing clouds.1 mph57%30.09 "Hg16 mi
10:00 am44 °FQuite cool.2 mph67%30.11 "HgN/A
9:00 am39 °FChilly.1 mph75%30.15 "HgN/A
Weather by CustomWeather, © 2017

See weather overviewHow to use our weather pages